Date_and_time,latitude,longitude,wind_speed,RelWindDirFrom,WindDirFrom,air_pressure,air_temperature,relative_humidity,Temp,platform_speed_wrt_ground,air_pressure_at_mean_sea_level,platform_orientation
2019-12-02 23:40,50.6304483333333,-96.9807716666667,11.7,14.3,185,974.78,-4.7,87,0.97,0.0,1002.75,311.7
2019-12-02 23:50,50.6304466666667,-96.9807716666667,9.7,12.7,188,974.88,-4.8,88,0.97,0.0,1002.85,311.7
2019-12-03 00:00,50.6304466666667,-96.98077,9.6,11.9,191,974.87,-4.9,89,0.97,0.0,1002.85,23.5
2019-12-03 00:10,50.630435,-96.9807583333333,10.0,12.8,189,974.76,-5.0,90,0.98,0.0,1002.75,23.5
2019-12-03 00:20,50.6304416666667,-96.98076,9.5,13.0,188,974.65,-5.2,91,0.99,0.0,1002.66,23.5
2019-12-03 00:30,50.6304483333333,-96.9807616666667,8.1,10.3,187,974.59,-5.3,92,0.99,0.0,1002.60,23.5
2019-12-03 00:40,50.6304483333333,-96.9807633333333,7.5,9.4,190,974.62,-5.5,93,0.98,0.0,1002.65,23.5
2019-12-03 00:50,50.6304466666667,-96.9807633333333,6.3,8.7,197,974.72,-5.6,93,0.98,0.0,1002.75,23.5
2019-12-03 01:00,50.6304466666667,-96.9807633333333,5.6,7.5,201,974.74,-5.6,94,0.98,0.0,1002.78,0.0
2019-12-03 01:10,50.6304633333333,-96.9807716666667,6.3,7.8,205,974.72,-5.6,94,0.98,0.0,1002.76,0.0
2019-12-03 01:20,50.6304566666667,-96.980765,5.6,7.0,199,974.57,-5.6,94,0.99,0.0,1002.60,0.0
2019-12-03 01:30,50.6304566666667,-96.9807666666667,6.1,7.8,193,974.44,-5.6,95,0.99,0.0,1002.46,0.0
2019-12-03 01:40,50.6304566666667,-96.98077,6.0,7.5,194,974.39,-5.6,95,0.99,0.0,1002.42,0.0
2019-12-03 01:50,50.630455,-96.98077,5.6,7.6,197,974.36,-5.5,95,0.98,0.0,1002.38,0.0
2019-12-03 02:00,50.6304416666667,-96.9807733333333,4.8,6.1,197,974.20,-5.4,96,0.97,0.0,1002.22,360.0
2019-12-03 02:10,50.630445,-96.9807716666667,4.7,5.9,194,974.09,-5.4,96,0.97,0.0,1002.12,360.0
2019-12-03 02:20,50.630445,-96.98077,4.7,5.5,189,973.99,-5.3,96,0.98,0.0,1002.01,360.0
2019-12-03 02:30,50.630445,-96.98077,4.9,5.6,191,973.89,-5.4,97,0.99,0.0,1001.92,360.0
2019-12-03 02:40,50.6304466666667,-96.98077,4.0,5.1,187,973.79,-5.3,97,1.00,0.0,1001.82,360.0
2019-12-03 02:50,50.6304483333333,-96.98077,4.6,5.4,185,973.80,-5.3,97,1.01,0.0,1001.84,360.0
2019-12-03 03:00,50.6304483333333,-96.98077,5.1,6.8,195,973.95,-5.2,98,1.01,0.0,1001.98,0.0
2019-12-03 03:10,50.63045,-96.9807683333333,5.7,6.9,197,973.92,-5.1,98,1.01,0.0,1001.95,0.0
2019-12-03 03:20,50.63045,-96.9807683333333,4.8,6.3,192,973.79,-5.1,98,1.01,0.0,1001.81,0.0
2019-12-03 03:30,50.63045,-96.9807666666667,4.5,5.4,188,973.67,-5.1,99,1.01,0.0,1001.69,0.0
2019-12-03 03:40,50.63045,-96.9807666666667,4.9,5.8,188,973.61,-5.1,99,1.01,0.0,1001.62,0.0
2019-12-03 03:50,50.63045,-96.9807666666667,5.0,6.1,196,973.60,-5.0,99,1.02,0.0,1001.60,0.0
2019-12-03 04:00,50.63045,-96.9807683333333,4.2,5.4,199,973.57,-4.8,99,1.01,0.0,1001.56,360.0
2019-12-03 04:10,50.6304633333333,-96.9808033333333,3.6,5.0,206,973.49,-4.6,99,1.01,0.0,1001.46,360.0
2019-12-03 04:20,50.630435,-96.98075,2.8,3.5,205,973.46,-4.4,98,1.02,0.0,1001.42,360.0
2019-12-03 04:30,50.6304416666667,-96.9807566666667,2.7,3.1,202,973.50,-4.4,98,1.02,0.0,1001.46,360.0
2019-12-03 04:40,50.6304466666667,-96.980755,1.8,2.9,201,973.51,-4.4,99,1.02,0.0,1001.47,360.0
2019-12-03 04:50,50.6304316666667,-96.980735,1.8,2.8,195,973.51,-4.5,99,1.02,0.0,1001.47,360.0
2019-12-03 05:00,50.63044,-96.9807516666667,2.8,3.2,186,973.49,-4.5,99,1.02,0.0,1001.45,90.0
2019-12-03 05:10,50.6304366666667,-96.9807533333333,3.3,3.8,182,973.53,-4.7,99,1.03,0.0,1001.49,90.0
2019-12-03 05:20,50.6304383333333,-96.98076,4.2,5.0,190,973.61,-4.8,99,1.03,0.0,1001.59,90.0
2019-12-03 05:30,50.6304416666667,-96.9807733333333,3.9,4.5,196,973.68,-4.8,99,1.02,0.0,1001.66,90.0
2019-12-03 05:40,50.6304433333333,-96.9807683333333,2.9,3.5,195,973.66,-4.6,99,1.02,0.0,1001.61,90.0
2019-12-03 05:50,50.630445,-96.980765,2.3,3.1,218,973.67,-4.5,99,1.02,0.0,1001.61,90.0
2019-12-03 06:00,50.6304466666667,-96.9807666666667,2.9,3.7,235,973.74,-4.0,99,1.02,0.0,1001.65,0.0
2019-12-03 06:10,50.6304483333333,-96.9807683333333,2.6,3.7,237,973.75,-3.7,98,1.02,0.0,1001.64,0.0
2019-12-03 06:20,50.63045,-96.9807683333333,3.0,5.4,251,973.73,-3.4,99,1.02,0.0,1001.59,0.0
2019-12-03 06:30,50.6304483333333,-96.9807683333333,4.1,6.8,255,973.68,-3.1,99,1.02,0.0,1001.53,0.0
2019-12-03 06:40,50.6304483333333,-96.98077,5.1,7.3,254,973.71,-3.0,99,1.02,0.0,1001.56,0.0
2019-12-03 06:50,50.6304483333333,-96.9807783333333,5.8,8.8,259,973.69,-2.8,99,1.01,0.0,1001.53,0.0
2019-12-03 07:00,50.630445,-96.9807733333333,5.0,7.8,258,973.57,-2.7,99,1.01,0.0,1001.41,360.0
2019-12-03 07:10,50.6304466666667,-96.98077,5.0,7.8,260,973.61,-2.8,99,1.00,0.0,1001.46,360.0
2019-12-03 07:20,50.6304483333333,-96.980775,5.1,7.6,263,973.74,-2.8,99,1.01,0.0,1001.60,360.0
2019-12-03 07:30,50.6304433333333,-96.98078,5.1,7.3,259,973.80,-2.8,99,1.01,0.0,1001.65,360.0
2019-12-03 07:40,50.6304416666667,-96.980785,4.7,6.4,259,973.77,-2.9,99,1.01,0.0,1001.62,360.0
2019-12-03 07:50,50.6304433333333,-96.9807833333333,5.0,6.6,255,973.89,-2.9,99,1.01,0.0,1001.72,360.0
2019-12-03 08:00,50.6304433333333,-96.98078,4.9,7.0,261,973.90,-2.9,99,1.01,0.0,1001.71,270.0
2019-12-03 08:10,50.6304433333333,-96.9807766666667,4.9,7.2,259,973.85,-2.9,99,1.01,0.0,1001.65,270.0
2019-12-03 08:20,50.6304433333333,-96.980775,4.8,7.1,257,973.85,-2.9,99,1.01,0.0,1001.63,270.0
2019-12-03 08:30,50.6304433333333,-96.980775,4.4,6.4,258,973.90,-2.9,99,1.01,0.0,1001.67,270.0
2019-12-03 08:40,50.630435,-96.98078,5.0,6.8,250,973.92,-2.9,99,1.01,0.0,1001.68,270.0
2019-12-03 08:50,50.6304316666667,-96.980755,5.2,8.1,253,973.87,-2.8,98,1.01,0.0,1001.63,270.0
2019-12-03 09:00,50.63043,-96.9807633333333,5.4,8.1,252,973.88,-2.8,98,1.02,0.0,1001.64,360.0
2019-12-03 09:10,50.63043,-96.98077,5.3,7.5,259,973.94,-2.8,97,1.02,0.0,1001.70,360.0
2019-12-03 09:20,50.6304333333333,-96.98077,5.8,9.4,260,973.91,-2.8,96,1.02,0.0,1001.67,360.0
2019-12-03 09:30,50.6304366666667,-96.98078,4.9,7.2,261,973.90,-2.8,96,1.02,0.0,1001.66,360.0
2019-12-03 09:40,50.6304583333333,-96.98081,4.5,6.9,260,973.82,-2.9,95,1.02,0.0,1001.58,360.0
2019-12-03 09:50,50.63045,-96.9807933333333,3.5,5.6,250,973.64,-3.1,95,1.02,0.0,1001.41,360.0
2019-12-03 10:00,50.6304516666667,-96.980785,4.2,6.1,240,973.62,-3.3,96,1.02,0.0,1001.40,347.4
2019-12-03 10:10,50.63045,-96.9807816666667,4.7,6.8,241,973.73,-3.5,95,1.02,0.0,1001.52,347.4
2019-12-03 10:20,50.6304483333333,-96.9807816666667,4.5,6.2,242,973.67,-3.5,95,1.02,0.0,1001.46,347.4
2019-12-03 10:30,50.63045,-96.9807816666667,4.6,6.5,235,973.56,-3.5,95,1.02,0.0,1001.35,347.4
2019-12-03 10:40,50.6304383333333,-96.9807783333333,5.4,7.6,245,973.67,-3.4,94,1.02,0.0,1001.45,347.4
2019-12-03 10:50,50.6304366666667,-96.9807766666667,5.5,8.5,251,973.79,-3.2,94,1.02,0.0,1001.57,347.4
2019-12-03 11:00,50.6304516666667,-96.98078,5.4,7.8,253,973.96,-3.2,94,1.02,0.0,1001.73,360.0
2019-12-03 11:10,50.6304433333333,-96.9807716666667,4.8,6.7,251,973.84,-3.1,94,1.02,0.0,1001.62,360.0
2019-12-03 11:20,50.6304466666667,-96.980775,4.0,6.1,255,973.62,-3.1,93,1.03,0.0,1001.39,360.0
2019-12-03 11:30,50.6304466666667,-96.9807716666667,3.8,5.4,245,973.50,-3.1,92,1.03,0.0,1001.27,360.0
2019-12-03 11:40,50.6304433333333,-96.9807733333333,4.1,5.8,250,973.51,-3.1,92,1.04,0.0,1001.29,360.0
2019-12-03 11:50,50.63044,-96.9807733333333,4.1,6.1,256,973.53,-3.1,91,1.04,0.0,1001.31,360.0
2019-12-03 12:00,50.63043,-96.9807983333333,3.6,5.6,248,973.41,-3.1,91,1.03,0.0,1001.21,270.0
2019-12-03 12:10,50.6304283333333,-96.9807866666667,4.0,5.9,246,973.35,-3.1,90,1.03,0.0,1001.14,270.0
2019-12-03 12:20,50.630425,-96.9807883333333,3.9,6.4,242,973.27,-3.1,90,1.03,0.0,1001.06,270.0
2019-12-03 12:30,50.6304283333333,-96.9807866666667,3.6,5.1,234,973.10,-3.1,89,1.04,0.0,1000.88,270.0
2019-12-03 12:40,50.63043,-96.9807833333333,3.9,5.5,238,973.05,-3.1,89,1.04,0.0,1000.82,270.0
2019-12-03 12:50,50.6304316666667,-96.98078,4.0,5.3,243,973.11,-3.2,89,1.04,0.0,1000.88,270.0
2019-12-03 13:00,50.6304333333333,-96.9807783333333,3.7,5.6,253,973.20,-3.2,89,1.04,0.0,1000.97,360.0
2019-12-03 13:10,50.6304333333333,-96.9807783333333,4.2,5.9,251,973.31,-3.2,89,1.04,0.0,1001.08,360.0
2019-12-03 13:20,50.630435,-96.9807783333333,4.7,6.7,250,973.43,-3.2,89,1.05,0.0,1001.21,360.0
2019-12-03 13:30,50.630435,-96.98078,4.4,6.2,244,973.28,-3.2,88,1.04,0.0,1001.06,360.0
2019-12-03 13:40,50.630435,-96.9807783333333,4.4,6.2,242,973.22,-3.3,88,1.04,0.0,1001.00,360.0
2019-12-03 13:50,50.6304316666667,-96.9807816666667,4.3,6.4,236,973.13,-3.2,87,1.04,0.0,1000.90,360.0
2019-12-03 14:00,50.630435,-96.9807833333333,4.2,6.4,231,973.03,-3.2,87,1.05,0.0,1000.80,360.0
2019-12-03 14:10,50.6304566666667,-96.980775,4.2,5.3,231,973.07,-3.3,87,1.04,0.0,1000.85,360.0
2019-12-03 14:20,50.6304533333333,-96.9807716666667,5.0,7.3,224,973.08,-3.3,88,1.03,0.0,1000.86,360.0
2019-12-03 14:30,50.630445,-96.9807683333333,4.3,5.7,229,973.10,-3.4,88,1.03,0.0,1000.89,360.0
2019-12-03 14:40,50.6304416666667,-96.980765,4.5,6.1,222,973.10,-3.5,88,1.04,0.0,1000.89,360.0
2019-12-03 14:50,50.6304383333333,-96.9807666666667,4.7,6.1,211,972.92,-3.5,88,1.05,0.0,1000.71,360.0
2019-12-03 15:00,50.6304366666667,-96.9807666666667,6.5,8.6,223,972.91,-3.6,87,1.05,0.0,1000.70,63.3
2019-12-03 15:10,50.6304266666667,-96.9807766666667,6.5,8.6,222,972.71,-3.6,86,1.05,0.0,1000.50,63.3
2019-12-03 15:20,50.6304333333333,-96.9807783333333,6.1,7.9,223,972.59,-3.6,84,1.05,0.0,1000.37,63.3
2019-12-03 15:30,50.6304216666667,-96.980765,5.8,7.7,224,972.65,-3.5,84,1.05,0.0,1000.43,63.3
2019-12-03 15:40,50.6304233333333,-96.9807733333333,6.6,9.5,230,972.80,-3.5,83,1.05,0.0,1000.59,63.3
2019-12-03 15:50,50.630425,-96.9807683333333,6.6,9.3,231,972.81,-3.4,82,1.03,0.0,1000.59,63.3
2019-12-03 16:00,50.6304283333333,-96.98077,7.4,11.2,230,972.84,-3.3,80,1.03,0.0,1000.61,113.6
2019-12-03 16:10,50.6304283333333,-96.98077,7.6,9.4,232,972.84,-3.2,79,1.03,0.0,1000.61,113.6
2019-12-03 16:20,50.630455,-96.9807783333333,8.3,12.4,235,972.93,-3.2,79,1.03,0.0,1000.71,113.6
2019-12-03 16:30,50.6304316666667,-96.9807733333333,8.5,11.3,232,972.83,-3.2,78,1.02,0.0,1000.61,113.6
2019-12-03 16:40,50.6304366666667,-96.9807733333333,7.5,10.6,232,972.68,-3.0,77,1.02,0.0,1000.46,113.6
2019-12-03 16:50,50.6304383333333,-96.9807716666667,5.8,8.7,230,972.42,-2.9,76,1.03,0.0,1000.18,113.6
2019-12-03 17:00,50.6304383333333,-96.98077,6.3,8.2,223,972.13,-2.7,75,1.04,0.0,999.88,66.4
2019-12-03 17:10,50.6304366666667,-96.9807716666667,5.9,7.9,230,972.12,-2.5,75,1.05,0.0,999.85,66.4
2019-12-03 17:20,50.6304366666667,-96.9807733333333,5.5,7.5,224,971.96,-2.4,74,1.05,0.0,999.68,66.4
2019-12-03 17:30,50.6304366666667,-96.9807716666667,6.4,8.3,221,972.01,-2.3,74,1.05,0.0,999.73,66.4
2019-12-03 17:40,50.6304283333333,-96.9807733333333,5.8,8.9,216,971.87,-2.3,74,1.04,0.0,999.57,66.4
2019-12-03 17:50,50.6304316666667,-96.98077,6.0,7.8,212,971.77,-2.2,73,1.02,0.0,999.46,66.4
2019-12-03 18:00,50.63043,-96.98077,5.8,7.6,216,971.54,-2.1,72,1.02,0.0,999.22,360.0
2019-12-03 18:10,50.63043,-96.98077,5.3,7.9,210,971.42,-2.0,72,1.02,0.0,999.09,360.0
2019-12-03 18:20,50.6304316666667,-96.9807716666667,5.7,7.6,212,971.39,-1.9,72,1.02,0.0,999.05,360.0
2019-12-03 18:30,50.6304516666667,-96.9807766666667,6.4,7.9,210,971.28,-1.8,71,1.02,0.0,998.93,360.0
2019-12-03 18:40,50.6304533333333,-96.9807716666667,5.9,7.7,205,971.09,-1.8,70,1.03,0.0,998.72,360.0
2019-12-03 18:50,50.6304583333333,-96.9807666666667,5.2,6.8,212,971.13,-1.7,70,1.03,0.0,998.74,360.0
2019-12-03 19:00,50.63043,-96.9807833333333,5.7,7.3,191,970.95,-1.7,70,1.04,0.0,998.55,270.0
2019-12-03 19:10,50.6304466666667,-96.9807733333333,4.7,7.1,226,971.23,-1.5,70,1.03,0.0,998.83,270.0
2019-12-03 19:20,50.6304416666667,-96.9807766666667,5.2,7.2,227,971.27,-1.4,69,1.04,0.0,998.85,270.0
2019-12-03 19:30,50.6304533333333,-96.9807833333333,5.8,9.4,224,971.24,-1.4,70,1.04,0.0,998.82,270.0
2019-12-03 19:40,50.6304233333333,-96.9807633333333,6.9,9.6,226,971.25,-1.4,68,1.04,0.0,998.82,270.0
2019-12-03 19:50,50.6304266666667,-96.98077,6.6,8.3,223,971.13,-1.4,68,1.03,0.0,998.70,270.0
2019-12-03 20:00,50.6304266666667,-96.9807716666667,6.2,8.3,219,971.04,-1.2,67,1.02,0.0,998.59,360.0
2019-12-03 20:10,50.63043,-96.980775,3.6,6.2,237,970.98,-0.2,62,1.01,0.0,998.47,360.0
2019-12-03 20:20,50.630435,-96.980775,5.0,7.7,226,970.74,0.2,61,0.99,0.0,998.21,360.0
2019-12-03 20:30,50.6304366666667,-96.9807733333333,3.7,6.5,216,970.58,0.4,60,0.97,0.0,998.03,360.0
2019-12-03 20:40,50.6304366666667,-96.980775,4.4,7.7,206,970.41,0.0,63,0.97,0.0,997.86,360.0
2019-12-03 20:50,50.6304366666667,-96.9807733333333,6.2,8.5,217,970.45,-0.2,64,0.97,0.0,997.92,360.0
2019-12-03 21:00,50.6304316666667,-96.9807733333333,5.8,8.7,225,970.59,-0.2,65,0.97,0.0,998.06,347.4
2019-12-03 21:10,50.63044,-96.9807766666667,5.6,8.1,220,970.65,-0.2,65,0.97,0.0,998.11,347.4
2019-12-03 21:20,50.6304383333333,-96.9807733333333,5.5,10.2,226,970.72,-0.2,66,0.96,0.0,998.18,347.4
2019-12-03 21:30,50.6304383333333,-96.980775,6.2,9.2,242,970.85,-0.3,67,0.96,0.0,998.32,347.4
2019-12-03 21:40,50.6304416666667,-96.9807733333333,6.1,8.6,252,970.95,-0.3,67,0.96,0.0,998.42,347.4
2019-12-03 21:50,50.6304433333333,-96.9807733333333,5.1,7.7,255,970.96,-0.4,67,0.96,0.0,998.42,347.4
2019-12-03 22:00,50.630445,-96.9807733333333,4.5,7.1,257,970.97,-0.3,68,0.96,0.0,998.38,32.5
2019-12-03 22:10,50.630445,-96.9807716666667,3.5,6.0,273,970.93,-0.1,67,0.95,0.0,998.32,32.5
2019-12-03 22:20,50.6304433333333,-96.9807716666667,3.3,5.9,269,971.07,-0.0,67,0.95,0.0,998.44,32.5
2019-12-03 22:30,50.630445,-96.9807733333333,3.5,5.1,274,971.12,-0.2,68,0.94,0.0,998.51,32.5
2019-12-03 22:40,50.630445,-96.980775,3.0,4.9,271,971.18,-0.3,68,0.95,0.0,998.59,32.5
2019-12-03 22:50,50.630445,-96.980775,3.6,4.9,273,971.31,-0.4,69,0.96,0.0,998.74,32.5
2019-12-03 23:00,50.630445,-96.9807766666667,4.4,6.7,275,971.45,-0.6,69,0.96,0.0,998.90,18.9
2019-12-03 23:10,50.630445,-96.980775,4.1,6.2,277,971.45,-0.6,69,0.96,0.0,998.90,18.9
2019-12-03 23:20,50.63045,-96.9807783333333,5.0,7.4,286,971.46,-0.6,67,0.97,0.0,998.91,18.9
2019-12-03 23:30,50.6304483333333,-96.9807766666667,4.7,7.9,287,971.58,-0.5,66,0.97,0.0,999.02,18.9
2019-12-03 23:40,50.6304433333333,-96.9807733333333,4.7,7.2,282,971.72,-0.5,66,0.97,0.0,999.17,18.9
